TimeCDT,TemperatureF,Dew PointF,Humidity,Sea Level PressureIn,VisibilityMPH,Wind Direction,Wind SpeedMPH,Gust SpeedMPH,PrecipitationIn,Events,Conditions,WindDirDegrees,DateUTC
12:52 AM,66.9,53.1,61,29.89,10.0,SE,3.5,-,N/A,,Clear,140,2013-09-25 05:52:00
1:52 AM,66.9,53.1,61,29.88,10.0,Calm,Calm,-,N/A,,Clear,0,2013-09-25 06:52:00
2:52 AM,64.9,53.1,65,29.88,10.0,South,3.5,-,N/A,,Clear,170,2013-09-25 07:52:00
3:52 AM,64.9,51.1,61,29.87,10.0,South,3.5,-,N/A,,Clear,170,2013-09-25 08:52:00
4:52 AM,63.0,52.0,67,29.87,10.0,South,5.8,-,N/A,,Clear,170,2013-09-25 09:52:00
5:52 AM,63.0,50.0,63,29.86,10.0,SSE,5.8,-,N/A,,Clear,160,2013-09-25 10:52:00
6:52 AM,64.0,50.0,60,29.87,10.0,SE,6.9,-,N/A,,Clear,140,2013-09-25 11:52:00
7:52 AM,64.9,51.1,61,29.87,10.0,SSE,5.8,-,N/A,,Clear,160,2013-09-25 12:52:00
8:52 AM,73.0,54.0,51,29.87,10.0,SSE,9.2,-,N/A,,Clear,150,2013-09-25 13:52:00
9:52 AM,80.1,55.0,42,29.87,10.0,SSE,12.7,-,N/A,,Clear,150,2013-09-25 14:52:00
10:52 AM,84.0,57.0,40,29.87,10.0,South,12.7,-,N/A,,Clear,190,2013-09-25 15:52:00
11:52 AM,87.1,57.9,37,29.86,10.0,SSW,15.0,26.5,N/A,,Clear,200,2013-09-25 16:52:00
12:52 PM,89.1,55.9,32,29.83,10.0,SSW,17.3,-,N/A,,Clear,210,2013-09-25 17:52:00
1:52 PM,90.0,55.0,30,29.80,10.0,SSW,15.0,20.7,N/A,,Clear,210,2013-09-25 18:52:00
2:52 PM,91.0,55.9,30,29.76,10.0,SSW,13.8,23.0,N/A,,Partly Cloudy,210,2013-09-25 19:52:00
3:52 PM,91.9,55.9,30,29.74,10.0,SSW,11.5,-,N/A,,Clear,200,2013-09-25 20:52:00
4:52 PM,91.9,55.0,29,29.73,10.0,SW,15.0,23.0,N/A,,Clear,220,2013-09-25 21:52:00
5:52 PM,91.0,54.0,28,29.72,10.0,SW,15.0,21.9,N/A,,Clear,220,2013-09-25 22:52:00
6:52 PM,89.1,53.1,29,29.72,10.0,South,10.4,-,N/A,,Clear,190,2013-09-25 23:52:00
7:52 PM,84.0,54.0,35,29.73,10.0,South,8.1,-,N/A,,Clear,170,2013-09-26 00:52:00
8:52 PM,77.0,55.9,48,29.73,10.0,SSE,8.1,-,N/A,,Clear,150,2013-09-26 01:52:00
9:52 PM,75.0,57.0,53,29.74,10.0,SSE,8.1,-,N/A,,Clear,150,2013-09-26 02:52:00
10:52 PM,73.9,57.0,55,29.75,10.0,SSE,5.8,-,N/A,,Clear,160,2013-09-26 03:52:00
11:52 PM,73.0,57.9,59,29.75,10.0,SSE,8.1,-,N/A,,Clear,160,2013-09-26 04:52:00